Location: La Silve
(44.2414°N, 5.8889°E)
Time: 12:38:47
(UTC+00:00)

Cosmos 1606 - Pass Details

Date: 01 December 2020
Orbit: 503 x 527 km, 82.5° (Epoch: 25 January)

Event Time Altitude Azimuth Distance (km) Brightness Sun altitude
Rises 16:47:41 0° 198° (SSW) 2,651 6.9 -8.7°
Reaches altitude 10° 16:49:51 10° 203° (SSW) 1,767 6.1 -9.0°
Maximum altitude 16:53:39 53° 281° (W) 654 3.6 -9.7°
Drops below altitude 10° 16:57:28 10° 359° (N) 1,775 5.2 -10.3°
Sets 16:59:40 0° 4° (N) 2,666 6.1 -10.7°
